EW7772 Weather Reports


time (UTC)temp
C
wind
direction
speed
KPH
gust
KPH
rain 1hr
cm
rain 24hr
cm
rain mn
cm
humidity
%
barometer
mb
20260906050106 9 279 0.0 0.0 0.00 0.00 0.00 90 1027.0
20260906044555 9 279 0.0 0.0 0.00 0.10 0.00 90 1027.0
20260906043059 9 279 0.0 0.0 0.00 0.10 0.00 89 1027.1
20260906041557 9 279 0.0 0.0 0.00 0.10 0.00 89 1027.0
20260906040051 9 279 0.0 0.0 0.00 0.10 0.00 89 1026.9
20260906034607 9 279 0.0 0.0 0.00 0.64 0.00 89 1027.0
20260906033047 10 279 0.0 0.0 0.00 0.64 0.00 88 1026.8
20260906031550 10 279 0.0 0.0 0.00 0.64 0.00 88 1026.9
20260906030044 10 279 0.0 0.0 0.00 0.64 0.00 88 1026.9
20260906024542 10 279 0.0 0.0 0.00 1.24 0.00 88 1026.7
20260906023041 10 279 0.0 0.0 0.00 1.24 0.00 88 1026.8
20260906021540 10 279 0.0 0.0 0.00 1.24 0.00 88 1026.7
20260906020040 10 279 0.0 0.0 0.00 1.24 0.00 88 1026.6
20260906014540 10 279 0.0 0.0 0.00 1.24 0.00 88 1026.6
20260906013056 10 279 0.0 0.0 0.00 1.24 0.00 88 1026.6
20260906011545 10 279 0.0 0.0 0.00 1.24 0.00 88 1026.5
20260906010035 11 279 0.0 0.0 0.00 1.24 0.00 87 1026.5
20260906004533 11 279 0.0 0.0 0.00 1.24 0.00 88 1026.4
20260906003036 11 279 0.0 0.0 0.00 1.24 0.00 87 1026.5
20260906001532 11 279 0.0 0.0 0.00 1.24 0.00 87 1026.6
20260906000030 11 279 0.0 0.0 0.00 1.24 0.00 87 1026.5
20260905234528 11 279 0.0 0.0 0.00 1.24 0.00 86 1026.4
20260905233028 11 279 0.0 0.0 0.00 1.24 0.00 86 1026.2
20260905231528 12 279 0.0 0.0 0.00 1.24 0.00 86 1026.0
20260905230024 12 279 0.0 0.0 0.00 1.24 0.00 85 1026.1
20260905224521 12 279 0.0 0.0 0.00 1.24 0.00 85 1025.9
20260905223019 12 279 0.0 0.0 0.00 1.24 0.00 84 1025.9
20260905221516 12 279 0.0 0.0 0.00 1.24 0.00 83 1025.7
20260905220014 12 279 0.0 1.6 0.00 1.24 0.00 82 1025.5
20260905214512 13 279 0.0 0.0 0.00 1.24 1.24 81 1025.3
20260905213008 13 279 0.0 0.0 0.00 1.24 1.24 81 1025.1
20260905211507 13 279 0.0 0.0 0.00 1.24 1.24 80 1024.9
20260905210005 14 279 0.0 0.0 0.00 1.24 1.24 78 1024.8
20260905204503 14 279 0.0 0.0 0.00 1.24 1.24 77 1024.7
20260905203003 15 279 0.0 0.0 0.00 1.24 1.24 76 1024.6
20260905201502 15 279 0.0 0.0 0.00 1.24 1.24 75 1024.5
20260905200107 15 279 0.0 0.0 0.00 1.24 1.24 74 1024.3
20260905194558 16 279 0.0 0.0 0.00 1.24 1.24 71 1024.1
20260905193057 16 279 0.0 0.0 0.00 1.24 1.24 70 1024.2
20260905191556 16 279 0.0 0.0 0.00 1.24 1.24 68 1024.0
20260905190055 17 279 0.0 0.0 0.00 1.24 1.24 65 1023.8
20260905184554 18 279 0.0 0.0 0.00 1.24 1.24 61 1023.7
20260905183051 19 279 0.0 0.0 0.00 1.24 1.24 58 1023.4
20260905181549 20 279 0.0 0.0 0.00 1.24 1.24 55 1023.3
20260905180048 21 279 0.0 0.0 0.00 1.24 1.24 52 1023.1
20260905174548 21 279 0.0 6.4 0.00 1.24 1.24 49 1022.9
20260905173044 21 279 0.0 3.2 0.00 1.24 1.24 49 1022.7
20260905171555 22 278 0.0 4.8 0.00 1.24 1.24 48 1022.5
20260905170040 22 266 0.0 6.4 0.00 1.24 1.24 47 1022.4
20260905164545 22 246 0.0 3.2 0.00 1.24 1.24 48 1022.3
20260905163048 22 275 0.0 3.2 0.00 1.24 1.24 48 1022.0
20260905161537 23 236 0.0 6.4 0.00 1.24 1.24 45 1022.0
20260905160036 23 284 1.6 6.4 0.00 1.24 1.24 46 1021.9
20260905154544 23 244 0.0 9.7 0.00 1.24 1.24 47 1021.8
20260905153035 24 259 0.0 6.4 0.00 1.24 1.24 45 1021.7
20260905151535 25 273 0.0 9.7 0.00 1.24 1.24 43 1021.6
20260905150041 25 258 1.6 9.7 0.00 1.24 1.24 44 1021.5
20260905144537 25 144 1.6 11.3 0.00 1.24 1.24 45 1021.4
20260905143033 25 284 1.6 9.7 0.00 1.24 1.24 45 1021.5
20260905141534 25 286 0.0 8.0 0.00 1.24 1.24 47 1021.5
20260905140029 25 263 0.0 9.7 0.00 1.24 1.24 49 1021.5
20260905134527 25 234 1.6 6.4 0.00 1.24 1.24 49 1021.6
20260905133024 24 273 0.0 8.0 0.00 1.24 1.24 53 1021.5
20260905131533 23 14 0.0 8.0 0.00 1.24 1.24 54 1021.6
20260905130021 23 284 0.0 6.4 0.00 1.24 1.24 54 1021.7
20260905124521 23 241 0.0 4.8 0.00 1.24 1.24 58 1021.8
20260905123029 23 290 0.0 3.2 0.00 1.24 1.24 58 1021.6
20260905121517 23 259 0.0 6.4 0.00 1.24 1.24 58 1021.7
20260905120022 23 211 1.6 8.0 0.00 1.24 1.24 57 1021.9
20260905114517 22 320 0.0 6.4 0.00 1.24 1.24 62 1021.8
20260905113011 21 287 0.0 6.4 0.00 1.24 1.24 63 1021.9
20260905111513 22 303 0.0 8.0 0.00 1.24 1.24 64 1021.8
20260905110008 22 267 1.6 8.0 0.00 1.24 1.24 65 1021.8
20260905104515 21 263 1.6 9.7 0.00 1.24 1.24 68 1021.9
20260905103003 20 287 1.6 9.7 0.00 1.24 1.24 69 1022.0
20260905101501 20 254 0.0 4.8 0.00 1.24 1.24 72 1021.9
20260905100104 20 286 0.0 4.8 0.00 1.24 1.24 74 1021.9
20260905094716 20 319 0.0 4.8 0.00 1.24 1.24 78 1021.9
20260905093116 18 287 0.0 6.4 0.00 1.24 1.24 81 1021.8
20260905091602 18 277 0.0 6.4 0.00 1.24 1.24 80 1021.8
20260905090055 18 271 0.0 3.2 0.00 1.24 1.24 81 1021.6
20260905084604 18 284 0.0 4.8 0.00 1.24 1.24 81 1021.3
20260905083053 17 249 0.0 4.8 0.00 1.24 1.24 85 1021.3
20260905081553 17 234 0.0 1.6 0.00 1.24 1.24 90 1021.1
20260905080105 16 234 0.0 1.6 0.00 1.24 1.24 92 1021.0
20260905074601 16 221 0.0 1.6 0.00 1.24 1.24 94 1021.2
20260905073105 15 221 0.0 0.0 0.00 1.24 1.24 94 1020.9
20260905071552 15 221 0.0 0.0 0.00 1.24 1.24 94 1020.8
20260905070048 15 221 0.0 0.0 0.00 1.24 1.24 95 1020.7
20260905064548 15 221 0.0 0.0 0.00 1.24 1.24 95 1020.9
20260905063047 14 221 0.0 0.0 0.00 1.24 1.24 94 1020.7
20260905061559 14 221 0.0 0.0 0.00 1.24 1.24 95 1020.3
20260905060059 14 221 0.0 1.6 0.00 1.24 1.24 95 1020.0
20260905054554 14 221 0.0 1.6 0.00 1.24 1.24 95 1019.8
20260905053042 14 221 0.0 0.0 0.00 1.24 1.24 95 1019.7
20260905051552 13 221 0.0 0.0 0.03 1.24 1.24 94 1019.6